Flag for Poland Weather past 2 weeks in Kalisz, Poland

Now
65 °F

Fog.


Feels Like: 65 °F
Forecast: 66 / 88 °F
Wind: 2 mph from Southeast

Location: Kalisz

Current Time: Jul 29, 2014 at 6:54:59 AM

Latest Report: Jul 29, 2014 at 6:00 AM


Visibility: 4 mi

Pressure: 29.83 "Hg

Humidity: 95%

Dew point: 64 °F

Location of KaliszLocation

Historic Weather in Kalisz — Graph

°F

Kalisz temperature yesterday

Maximum temperature yesterday: 87 °F (at 3:00 PM)
Minimum temperature yesterday: 67 °F (at 5:00 AM)
Average temperature yesterday: 77 °F

Past Weeks' High & Low Weather Summary

 TemperatureHumidityPressure
High91 °F (Jul 20, 5:00 PM)99% (Jul 25, 3:00 PM)30.16 "Hg (Jul 25, 3:00 PM)
Low59 °F (Jul 23, 5:00 AM)31% (Jul 20, 5:00 PM)29.80 "Hg (Jul 28, 6:00 PM)
Average73 °F68%29.98 "Hg
* Reported Jul 14 5:00 AM — Jul 29 5:00 AM, Kalisz, Weather by CustomWeather, © 2014

Note: Actual official high and low records may vary slightly from our data, if they occured in-between our weather recording intervals... More about our weather records

Advertising

Kalisz weather history for previous 24 hours

 ConditionsComfort  
Time TempWeatherWind HumidityBarometerVisibility
5:00 AM
Jul 29
65 °FPassing clouds.2 mph96%29.82 "Hg6 mi
4:00 AM66 °FPassing clouds.2 mph94%29.82 "Hg6 mi
3:00 AM67 °FPassing clouds.2 mph92%29.82 "Hg7 mi
2:00 AM69 °FPassing clouds.2 mph85%29.81 "Hg9 mi
1:00 AM71 °FPassing clouds.2 mph81%29.82 "Hg9 mi
12:00 AM71 °FPassing clouds.2 mph83%29.83 "Hg9 mi
11:00 PM
Jul 28
72 °FOvercast.1 mph79%29.83 "Hg12 mi
10:00 PM73 °FOvercast.3 mph74%29.84 "Hg12 mi
9:00 PM78 °FOvercast.2 mph62%29.83 "Hg12 mi
8:00 PM81 °FOvercast.3 mph57%29.81 "Hg16 mi
7:00 PM83 °FOvercast.2 mph52%29.80 "Hg19 mi
6:00 PM86 °FOvercast.3 mph44%29.80 "Hg19 mi
5:00 PM87 °FOvercast.5 mph44%29.80 "Hg19 mi
4:00 PM86 °FOvercast.5 mph42%29.81 "Hg22 mi
3:00 PM87 °FOvercast.3 mph46%29.83 "Hg22 mi
2:00 PM87 °FOvercast.2 mph41%29.85 "Hg22 mi
1:00 PM85 °FOvercast.3 mph50%29.86 "Hg19 mi
12:00 PM84 °FOvercast.3 mph55%29.88 "Hg12 mi
11:00 AM81 °FScattered clouds.3 mph61%29.88 "Hg16 mi
10:00 AM78 °FPassing clouds.3 mph70%29.90 "Hg12 mi
9:00 AM75 °FPassing clouds.2 mph74%29.90 "Hg12 mi
8:00 AM71 °FPassing clouds.No wind82%29.90 "Hg7 mi
7:00 AM68 °FPassing clouds.2 mph88%29.91 "Hg9 mi
6:00 AM67 °FPassing clouds.1 mph91%29.91 "Hg7 mi
Weather by CustomWeather, © 2014

See weather overviewHow to use our weather pages